Weather in Bol'shiye Taytsy

Russia / Saint-Petersburg and Leningrad Oblast     59°39′33″N   30°06′24″E
temp.,
°C
wind,
m/s
gust,
m/s
humid.,
%
clouds,
%
prec.,
mm/h
press.,
hPa
HPBL,
m
10 april, sat
sat1000:00+2ssw81796100 0.5 10071283
03:00+2ssw81796100 0.8 10071301
06:00+3ssw71489100 0.1 10081129
09:00+4ssw8147499 0.1 10081479
12:00+6ssw81475100 0.1 10091415
15:00+4sw71289100 1.1 10101097
18:00+5wsw6125874 0.6 10111762
21:00+2wsw410685 0.6 1014325
11 april, sun
sun1100:00+1sw512740 0.0 1017454
03:000sw512795 0.0 1019311
06:000sw512751 0.0 1021283
09:00+4sw611570 0.0 1023487
12:00+8sw574130 0.0 10251159
15:00+9sw453415 0.0 10261993
18:00+9ssw133552 0.0 10271296
21:00+4sse225594 0.0 102826
12 april, mon
mon1200:00+4sse3758100 0.0 1028139
03:00+3sse397789 0.0 1028178
06:00+4se4108829 0.0 1027250
09:00+7sse5128252 0.0 1026360
12:00+14s6105860 0.0 1025862
15:00+16s694446 0.0 10241518
18:00+15sse58496 0.0 1023915
21:00+10sse310724 0.0 1022181
13 april, tue
tue1300:00+8s38785 0.0 1022148
03:00+7s368435 0.0 102191
06:00+6s3685100 0.0 101994
09:00+9s487198 0.0 1019267
12:00+14ssw465187 0.0 1019963
15:00+12sw376394 0.0 1019373
18:00+10wsw2477100 0.0 1019154
21:00+9w1175100 0.0 102010
14 april, wed
wed1400:00+9e227796 0.0 101920
03:00+7se228534 0.0 101813
06:00+6se229187 0.0 101727
09:00+8ese1194100 0.6 101643
12:00+9e1198100 2.1 101542
15:00+7nw2396100 3.1 1014136
18:00+6w2592100 0.8 1014198
21:00+5wnw3693100 1.5 1014213